Regional Weather Roundup
Issued by NWS

Home | Current Version | Previous Version | Graphics & Text | Print | Product List | Glossary On
Versions: 1 2 3 4 5 6 7 8 9 10 11 12 13 14 15 16 17 18 19 20 21 22 23 24 25 26 27 28 29 30 31 32 33 34 35 36 37 38 39 40 41 42 43 44 45 46 47 48 49 50
000
ASUS43 KMKX 180811
RWRWI

WISCONSIN REGIONAL WEATHER ROUNDUP
NATIONAL WEATHER SERVICE MILWAUKEE/SULLIVAN WI
300 AM CDT FRI APR 18 2014

NOTE: "FAIR" INDICATES FEW OR NO CLOUDS BELOW 12,000 FEET WITH NO
SIGNIFICANT WEATHER AND/OR OBSTRUCTIONS TO VISIBILITY.

WIZ001-002-006>008-014>016-023>028-180900-
NORTHWEST WISCONSIN

CITY           SKY/WX    TMP DP  RH WIND       PRES   REMARKS
SUPERIOR ARPT  MOCLDY    23  21  91 CALM      30.34S
ASHLAND        PTCLDY    24  22  91 W5        30.33S WCI  18
HAYWARD        HAZE      18  13  80 CALM      30.31F VSB 3/4
SIREN          PTCLDY    20  18  94 CALM      30.32F
RICE LAKE      PTCLDY    22  20  95 CALM      30.34S FOG
LADYSMITH      FOG       24  24  96 CALM      30.33S VSB 3/4
EAU CLAIRE     CLEAR     24  22  91 CALM      30.32F
MENOMONIE      SUNNY     27  25  94 CALM      30.33F
NEW RICHMOND   CLEAR     26  26 100 CALM      30.33S
OSCEOLA        CLEAR     21  21 100 CALM      30.36S
$$

WIZ003>005-009-010-017-018-180900-
NORTH CENTRAL WISCONSIN

CITY           SKY/WX    TMP DP  RH WIND       PRES   REMARKS
WOODRUFF       CLEAR     23  18  81 CALM      30.27S
RHINELANDER    CLEAR     29  22  75 CALM      30.28S
EAGLE RIVER    MOCLDY    28  22  75 NW5       30.26S WCI  23
LAND O LAKES   CLOUDY    30  23  75 NW6       30.27S WCI  24
PHILLIPS       PTCLDY    19  19  98 CALM      30.28S FOG
TOMAHAWK       CLEAR     26  24  89 CALM      30.29R
MEDFORD        CLEAR     26  24  89 CALM      30.29S
MERRILL        CLEAR     29  24  81 CALM      30.29S
$$

WIZ029-030-035-036-043>047-180900-
CENTRAL WISCONSIN

CITY           SKY/WX    TMP DP  RH WIND       PRES   REMARKS
WAUSAU         MOCLDY    32  24  72 N5        30.28S WCI  27
MOSINEE        CLOUDY    32  28  86 N7        30.30F WCI  26
MARSHFIELD     MOCLDY    32  25  75 N3        30.30S
STEVENS POINT  CLOUDY    32  24  72 N6        30.30S WCI  26
WAUPACA        CLOUDY    37  27  65 NW7       30.30S WCI  32
WAUTOMA        CLOUDY    35  29  79 NW3       30.31S
WISC RAPIDS    CLOUDY    34  26  72 N8        30.32S WCI  27
CAMP DOUGLAS   MOCLDY    30  29  99 N3        30.31S
$$

WIZ011>013-019>022-031-037>040-048>050-180900-
NORTHEAST WISCONSIN

CITY           SKY/WX    TMP DP  RH WIND       PRES   REMARKS
ANTIGO         CLOUDY    31  25  78 NW10      30.27S WCI  22
STURGEON BAY   CLOUDY    36  27  69 NW8       30.28S WCI  29
GREEN BAY      CLOUDY    36  31  82 NW6       30.30R WCI  31
MANITOWOC      CLOUDY    39  34  82 NW7       30.28S WCI  34
APPLETON       CLOUDY    34  28  80 NW8       30.29S WCI  27
CLINTONVILLE   CLOUDY    36  28  75 N6        30.30S WCI  31
OSHKOSH        CLEAR     33  28  81 NW3       30.29S
$$

WIZ032>034-041-042-053>061-180900-
SOUTHWEST WISCONSIN

CITY           SKY/WX    TMP DP  RH WIND       PRES   REMARKS
LA CROSSE      CLEAR     34  26  72 NE3       30.32S
SPARTA         CLEAR     28  25  87 CALM      30.33S
VIROQUA        FAIR      31  28  88 N5        30.30R WCI  26
BOSCOBEL       CLEAR     29  26  89 CALM      30.32F FOG
PRAIRIE DU CHI CLEAR     29  27  92 CALM      30.32S
PLATTEVILLE    FAIR      30  28  91 N3        30.30S
$$

WIZ056-057-062-063-064-067-068-180900-
SOUTH CENTRAL WISCONSIN

CITY           SKY/WX    TMP DP  RH WIND       PRES   REMARKS
BARABOO/DELLS  PTCLDY    29  28  94 CALM      30.29F
LONE ROCK      PTCLDY    31  28  89 CALM      30.31S
WATERTOWN      CLEAR     33  31  92 N3        30.28S
MADISON        CLEAR     31  29  92 NW5       30.30S WCI  26
MIDDLETON      FAIR      31  31  96 CALM      30.30S
MONROE         CLEAR    N/A N/A N/A N7        30.28S
JANESVILLE     CLEAR     36  32  87 N5        30.28S WCI  32
$$

WIZ051-052-058>065-066-070>072-180900-
SOUTHEAST WISCONSIN

CITY           SKY/WX    TMP DP  RH WIND       PRES   REMARKS
MILWAUKEE      MOCLDY    40  33  76 NW7       30.29S
WAUKESHA       MOCLDY    34  32  93 NW6       30.29S WCI  29
MILWAUKEE/TIMM PTCLDY    36  32  87 N3        30.29S
RACINE         PTCLDY    40  35  83 N8        30.29S WCI  34
BURLINGTON     MOCLDY    36  33  88 N5        30.27S WCI  32
KENOSHA        PTCLDY    38  35  89 NE6       30.27S WCI  33
FOND DU LAC    CLEAR     32  28  85 CALM      30.29S
SHEBOYGAN      CLEAR     35  30  82 NW7       30.28R WCI  29
WEST BEND      CLEAR     34  30  86 CALM      30.28S
JUNEAU         CLEAR     32  29  89 NW3       30.29S
$$

LSZ147-162-180900-
LAKE SUPERIOR

STATION/POSITION TIME  TEMP    WIND        PRES    WAVE
                       AIR SEA DIR/SP/G            HT/PER
                 (UTC) (F)     (DEG/KT/KT) (MB)    (FT/S)
DEVILS ISLAND    0800   32     290/  7/  8 1028.0R
PORT WING        0740   26     150/  2/  2 1027.1S
SAXON HARBOR     0700             CALM     1026.8R
$$

LMZ867-665-643>646-180900-
LAKE MICHIGAN

STATION/POSITION TIME  TEMP    WIND        PRES    WAVE
                       AIR SEA DIR/SP/G            HT/PER
                 (UTC) (F)     (DEG/KT/KT) (MB)    (FT/S)
NORTHPORT PIER   0700   36     300/  7/  9 1025.1
SISTER BAY       0723   35     330/  7/  7   N/A
KEWAUNEE LAKESHO 0700   40     330/  7/ 11 1025.7F
SHEBOYGAN LAKESH 0800   39     320/  9/ 11 1025.8F
PORT WASHINGTON  0700   39     320/  4/  6 1025.7
MILWAUKEE LAKESH 0700   42     330/  4/  5   N/A
KENOSHA   LAKESH 0800   43      10/  9/ 10   N/A
$$

TC  - TEMPERATURE IN CELSIUS
VSB - VISIBILITY IN STATUTE MILES
WCI - WIND CHILL INDEX
HX  - HEAT INDEX




USA.gov is the U.S. government's official web portal to all federal, state and local government web resources and services.